Regional Weather Roundup
Issued by NWS

Home | Current Version | Previous Version | Graphics & Text | Print | Product List | Glossary On
Versions: 1 2 3 4 5 6 7 8 9 10 11 12 13 14 15 16 17 18 19 20 21 22 23 24 25 26 27 28 29 30 31 32 33 34 35 36 37 38 39 40 41 42 43 44 45 46 47 48 49 50
000
ASUS44 KMEG 301610
RWRTN
TENNESSEE HOURLY STATE WEATHER ROUNDUP
NATIONAL WEATHER SERVICE MEMPHIS TN
1100 AM CDT MON MAR 30 2015

TNZ002-004-019-021-049-052-054-088>092-301700-
WEST TENNESSEE

CITY           SKY/WX    TMP DP  RH WIND       PRES   REMARKS
MEMPHIS INTL   MOSUNNY   64  39  39 NE7       30.24F
NWS MEMPHIS      N/A     62 N/A N/A MISG        N/A
JACKSON        SUNNY     62  37  39 E8        30.24S
DYERSBURG      SUNNY     61  34  36 E8        30.25F
UNION CITY     SUNNY     57  39  51 VRB5      30.23S
PARIS          SUNNY     57  32  38 VRB6      30.24S
HUNTINGDON     SUNNY     59  29  32 VRB5      30.24S
LEXINGTON      SUNNY     61  34  36 NE10      30.23R
SAVANNAH       SUNNY     63  43  48 NE9       30.24S
$$

TNZ008-025-027-028-033-062-065-066-301700-
NORTH MIDDLE TENNESSEE

CITY           SKY/WX    TMP DP  RH WIND       PRES   REMARKS
NASHVILLE      SUNNY     62  31  31 N12       30.22R
CLARKSVILLE    SUNNY     60  34  37 N12       30.22R
SMYRNA         SUNNY     61  35  37 NW15      30.23R
COOKEVILLE     SUNNY     59  39  47 NW10        N/A
CROSSVILLE     SUNNY     56  35  45 NW8       30.18R
$$

TNZ061-075-076-078-094-096-097-301700-
SOUTH MIDDLE TENNESSEE

CITY           SKY/WX    TMP DP  RH WIND       PRES   REMARKS
FAYETTEVILLE   SUNNY     57  41  54 N7        30.22S
TULLAHOMA      SUNNY     57  36  44 N9        30.21F
WINCHESTER     SUNNY     57  45  62 N8        30.21S
MCMINNVILLE    SUNNY     61  39  44 NW8       30.20S
COLUMBIA       SUNNY     61  39  44 N9        30.21S
SHELBYVILLE    SUNNY     61  39  44 N8        30.22S
$$

TNZ017-018-042-046-047-301700-
NORTHEAST TENNESSEE

CITY           SKY/WX    TMP DP  RH WIND       PRES   REMARKS
TRI CITIES     PTSUNNY   51  43  74 SW17      30.10F
ELIZABETHTON   CLOUDY    48  43  81 SW12      30.10F
$$

TNZ012-013-036-069-073-074-301700-
CENTRAL EAST TENNESSEE

CITY           SKY/WX    TMP DP  RH WIND       PRES   REMARKS
KNOXVILLE      PTSUNNY   56  46  69 SW8       30.16S
OAK RIDGE      MOSUNNY   61  40  45 W10       30.16F
GATLINBURG     PTSUNNY   57  45  62 W6        30.15F
MORRISTOWN       N/A     55  45  67 W8        30.14S
$$

TNZ083-085-099-301700-
SOUTHEAST TENNESSEE

CITY           SKY/WX    TMP DP  RH WIND       PRES   REMARKS
CHATTANOOGA    PTSUNNY   61  45  55 NW8       30.19R
$$

SKY/WX REPORTED AS FAIR MEANS FEW OR NO CLOUDS BELOW
12 THOUSAND FEET.




USA.gov is the U.S. government's official web portal to all federal, state and local government web resources and services.